| time (UTC) | temp C | wind direction | speed KPH | gust KPH | rain 1hr cm | rain 24hr cm | rain mn cm | humidity % | barometer mb |
| 20260507013058 | 12 | 93 | 8.0 | 14.5 | 0.00 | 0.00 | 0.00 | 61 | 1012.1 |
| 20260507011603 | 12 | 105 | 3.2 | 12.9 | 0.00 | 0.00 | 0.00 | 60 | 1012.2 |
| 20260507010059 | 12 | 75 | 9.7 | 16.1 | 0.00 | 0.00 | 0.00 | 59 | 1012.3 |
| 20260507010001 | 12 | 56 | 9.7 | 16.1 | 0.00 | 0.00 | 0.00 | 59 | 1012.3 |
| 20260507004600 | 12 | 36 | 8.0 | 19.3 | 0.00 | 0.00 | 0.00 | 58 | 1012.3 |
| 20260507003059 | 12 | 45 | 11.3 | 24.1 | 0.00 | 0.00 | 0.00 | 57 | 1012.4 |
| 20260507001602 | 13 | 34 | 9.7 | 19.3 | 0.00 | 0.00 | 0.00 | 56 | 1012.3 |
| 20260507000100 | 13 | 25 | 9.7 | 20.9 | 0.00 | 0.00 | 0.00 | 54 | 1012.1 |
| 20260507000002 | 13 | 65 | 8.0 | 20.9 | 0.00 | 0.00 | 0.00 | 54 | 1012.1 |
| 20260506234605 | 13 | 22 | 12.9 | 22.5 | 0.00 | 0.00 | 0.00 | 51 | 1012.1 |
| 20260506233101 | 13 | 41 | 6.4 | 17.7 | 0.00 | 0.00 | 0.00 | 48 | 1012.1 |
| 20260506231601 | 14 | 8 | 6.4 | 14.5 | 0.00 | 0.00 | 0.00 | 46 | 1012.0 |
| 20260506230002 | 15 | 34 | 8.0 | 12.9 | 0.00 | 0.00 | 0.00 | 44 | 1012.0 |
| 20260506224501 | 15 | 22 | 1.6 | 8.0 | 0.00 | 0.00 | 0.00 | 40 | 1012.0 |
| 20260506223001 | 15 | 38 | 4.8 | 8.0 | 0.00 | 0.00 | 0.00 | 38 | 1012.0 |
| 20260506221501 | 16 | 113 | 3.2 | 8.0 | 0.00 | 0.00 | 0.00 | 36 | 1011.9 |
| 20260506220002 | 16 | 63 | 1.6 | 6.4 | 0.00 | 0.00 | 0.00 | 35 | 1012.0 |
| 20260506214600 | 16 | 71 | 3.2 | 8.0 | 0.00 | 0.00 | 0.00 | 36 | 1012.1 |
| 20260506214502 | 16 | 56 | 3.2 | 8.0 | 0.00 | 0.00 | 0.00 | 36 | 1012.1 |
| 20260506213140 | 16 | 72 | 1.6 | 6.4 | 0.00 | 0.00 | 0.00 | 37 | 1012.1 |
| 20260506211632 | 16 | 50 | 0.0 | 3.2 | 0.00 | 0.00 | 0.00 | 36 | 1012.1 |
| 20260506211502 | 16 | 79 | 0.0 | 3.2 | 0.00 | 0.00 | 0.00 | 36 | 1012.1 |
| 20260506210103 | 16 | 57 | 0.0 | 3.2 | 0.00 | 0.00 | 0.00 | 36 | 1012.1 |
| 20260506210002 | 16 | 58 | 0.0 | 3.2 | 0.00 | 0.00 | 0.00 | 36 | 1012.1 |
| 20260506204502 | 16 | 25 | 0.0 | 1.6 | 0.00 | 0.00 | 0.00 | 35 | 1012.0 |
| 20260506203002 | 16 | 76 | 0.0 | 1.6 | 0.00 | 0.00 | 0.00 | 33 | 1011.9 |
| 20260506201503 | 17 | 1 | 1.6 | 4.8 | 0.00 | 0.00 | 0.00 | 31 | 1011.9 |
| 20260506200005 | 17 | 25 | 0.0 | 4.8 | 0.00 | 0.00 | 0.00 | 31 | 1011.9 |
| 20260506194502 | 17 | 7 | 1.6 | 6.4 | 0.00 | 0.00 | 0.00 | 30 | 1011.8 |
| 20260506193001 | 17 | 19 | 1.6 | 4.8 | 0.00 | 0.00 | 0.00 | 30 | 1011.7 |
| 20260506191502 | 17 | 323 | 0.0 | 3.2 | 0.00 | 0.00 | 0.00 | 32 | 1011.7 |
| 20260506190002 | 17 | 194 | 0.0 | 1.6 | 0.00 | 0.00 | 0.00 | 31 | 1011.6 |
| 20260506184609 | 17 | 208 | 1.6 | 4.8 | 0.00 | 0.00 | 0.00 | 30 | 1011.5 |
| 20260506184501 | 17 | 205 | 1.6 | 4.8 | 0.00 | 0.00 | 0.00 | 30 | 1011.6 |
| 20260506183105 | 17 | 213 | 0.0 | 6.4 | 0.00 | 0.00 | 0.00 | 28 | 1011.6 |
| 20260506183001 | 17 | 213 | 0.0 | 6.4 | 0.00 | 0.00 | 0.00 | 29 | 1011.5 |
| 20260506181600 | 18 | 205 | 0.0 | 6.4 | 0.00 | 0.00 | 0.00 | 28 | 1011.5 |
| 20260506180100 | 18 | 189 | 3.2 | 11.3 | 0.00 | 0.00 | 0.00 | 29 | 1011.5 |
| 20260506180000 | 18 | 105 | 4.8 | 11.3 | 0.00 | 0.00 | 0.00 | 28 | 1011.6 |
| 20260506174503 | 18 | 320 | 1.6 | 9.7 | 0.00 | 0.00 | 0.00 | 29 | 1011.6 |
| 20260506173109 | 18 | 122 | 6.4 | 17.7 | 0.00 | 0.00 | 0.00 | 29 | 1011.7 |
| 20260506171501 | 18 | 63 | 4.8 | 12.9 | 0.00 | 0.00 | 0.00 | 29 | 1011.7 |
| 20260506170116 | 20 | 77 | 1.6 | 16.1 | 0.00 | 0.00 | 0.00 | 28 | 1011.7 |
| 20260506164603 | 20 | 122 | 6.4 | 17.7 | 0.00 | 0.00 | 0.00 | 28 | 1011.8 |
| 20260506164502 | 20 | 130 | 8.0 | 17.7 | 0.00 | 0.00 | 0.00 | 27 | 1011.8 |
| 20260506163112 | 21 | 28 | 0.0 | 6.4 | 0.00 | 0.00 | 0.00 | 28 | 1011.9 |
| 20260506161601 | 20 | 193 | 4.8 | 9.7 | 0.00 | 0.00 | 0.00 | 28 | 1011.9 |
| 20260506160113 | 20 | 200 | 3.2 | 14.5 | 0.00 | 0.00 | 0.00 | 29 | 1012.0 |
| 20260506160002 | 20 | 107 | 3.2 | 14.5 | 0.00 | 0.00 | 0.00 | 29 | 1012.0 |
| 20260506154606 | 19 | 110 | 8.0 | 16.1 | 0.00 | 0.00 | 0.00 | 29 | 1012.1 |
| 20260506153104 | 19 | 354 | 3.2 | 11.3 | 0.00 | 0.00 | 0.00 | 29 | 1012.2 |
| 20260506151607 | 19 | 233 | 4.8 | 14.5 | 0.00 | 0.00 | 0.00 | 28 | 1012.3 |
| 20260506150004 | 20 | 112 | 1.6 | 11.3 | 0.00 | 0.00 | 0.00 | 30 | 1012.4 |
| 20260506144608 | 19 | 101 | 3.2 | 9.7 | 0.00 | 0.00 | 0.00 | 29 | 1012.8 |
| 20260506143001 | 19 | 137 | 6.4 | 14.5 | 0.00 | 0.00 | 0.00 | 31 | 1012.9 |
| 20260506141601 | 18 | 326 | 1.6 | 8.0 | 0.00 | 0.00 | 0.00 | 33 | 1013.1 |
| 20260506140106 | 19 | 226 | 3.2 | 12.9 | 0.00 | 0.00 | 0.00 | 33 | 1013.4 |
| 20260506140002 | 19 | 212 | 4.8 | 12.9 | 0.00 | 0.00 | 0.00 | 33 | 1013.4 |
| 20260506134600 | 19 | 146 | 0.0 | 6.4 | 0.00 | 0.00 | 0.00 | 33 | 1013.5 |
| 20260506133103 | 19 | 211 | 3.2 | 9.7 | 0.00 | 0.00 | 0.00 | 35 | 1013.7 |
| 20260506131603 | 18 | 160 | 6.4 | 16.1 | 0.00 | 0.00 | 0.00 | 35 | 1013.8 |
| 20260506130009 | 18 | 136 | 4.8 | 16.1 | 0.00 | 0.00 | 0.00 | 37 | 1013.9 |
| 20260506124501 | 17 | 203 | 1.6 | 17.7 | 0.00 | 0.00 | 0.00 | 39 | 1014.1 |
| 20260506123100 | 17 | 212 | 6.4 | 14.5 | 0.00 | 0.00 | 0.00 | 38 | 1014.3 |
| 20260506123001 | 17 | 195 | 4.8 | 12.9 | 0.00 | 0.00 | 0.00 | 37 | 1014.3 |
| 20260506121600 | 17 | 162 | 4.8 | 14.5 | 0.00 | 0.00 | 0.00 | 38 | 1014.4 |
| 20260506121503 | 17 | 208 | 1.6 | 14.5 | 0.00 | 0.00 | 0.00 | 40 | 1014.4 |
| 20260506120100 | 17 | 158 | 0.0 | 9.7 | 0.00 | 0.00 | 0.00 | 39 | 1014.5 |
| 20260506120003 | 17 | 176 | 1.6 | 9.7 | 0.00 | 0.00 | 0.00 | 40 | 1014.5 |
| 20260506114601 | 17 | 149 | 1.6 | 11.3 | 0.00 | 0.00 | 0.00 | 41 | 1014.7 |
| 20260506113101 | 16 | 160 | 3.2 | 9.7 | 0.00 | 0.00 | 0.00 | 42 | 1014.8 |
| 20260506111603 | 16 | 190 | 1.6 | 12.9 | 0.00 | 0.00 | 0.00 | 44 | 1014.9 |
| 20260506111501 | 16 | 37 | 1.6 | 12.9 | 0.00 | 0.00 | 0.00 | 44 | 1014.9 |
| 20260506110100 | 16 | 323 | 3.2 | 8.0 | 0.00 | 0.00 | 0.00 | 43 | 1014.9 |
| 20260506110005 | 16 | 270 | 1.6 | 8.0 | 0.00 | 0.00 | 0.00 | 44 | 1014.9 |
| 20260506104501 | 16 | 46 | 0.0 | 6.4 | 0.00 | 0.00 | 0.00 | 45 | 1015.0 |
| 20260506103127 | 15 | 134 | 3.2 | 9.7 | 0.00 | 0.00 | 0.00 | 44 | 1015.2 |
| 20260506101600 | 15 | 156 | 6.4 | 12.9 | 0.00 | 0.00 | 0.00 | 46 | 1015.3 |
| 20260506100002 | 15 | 94 | 4.8 | 9.7 | 0.00 | 0.00 | 0.00 | 49 | 1015.3 |
| 20260506094502 | 13 | 186 | 3.2 | 9.7 | 0.00 | 0.00 | 0.00 | 53 | 1015.4 |
| 20260506093100 | 13 | 134 | 1.6 | 17.7 | 0.00 | 0.00 | 0.00 | 53 | 1015.3 |
| 20260506093001 | 13 | 317 | 4.8 | 17.7 | 0.00 | 0.00 | 0.00 | 53 | 1015.4 |
| 20260506091607 | 12 | 22 | 9.7 | 16.1 | 0.00 | 0.00 | 0.00 | 52 | 1015.4 |
| 20260506090103 | 12 | 45 | 6.4 | 17.7 | 0.00 | 0.00 | 0.00 | 55 | 1015.4 |
| 20260506084616 | 12 | 63 | 8.0 | 17.7 | 0.00 | 0.00 | 0.00 | 56 | 1015.4 |
| 20260506083100 | 12 | 59 | 8.0 | 14.5 | 0.00 | 0.00 | 0.00 | 56 | 1015.3 |
| 20260506081607 | 12 | 10 | 4.8 | 14.5 | 0.00 | 0.00 | 0.00 | 57 | 1015.4 |
| 20260506073001 | 11 | 56 | 1.6 | 9.7 | 0.00 | 0.00 | 0.00 | 60 | 1015.4 |
| 20260506071501 | 11 | 68 | 0.0 | 6.4 | 0.00 | 0.00 | 0.00 | 61 | 1015.4 |
| 20260506061603 | 10 | 103 | 1.6 | 8.0 | 0.00 | 0.00 | 0.00 | 65 | 1015.0 |
| 20260506050113 | 8 | 21 | 3.2 | 6.4 | 0.00 | 0.00 | 0.00 | 70 | 1014.5 |
| 20260506044601 | 8 | 4 | 3.2 | 6.4 | 0.00 | 0.00 | 0.00 | 70 | 1014.3 |
| 20260506043106 | 8 | 281 | 1.6 | 4.8 | 0.00 | 0.00 | 0.00 | 69 | 1014.3 |
| 20260506041558 | 9 | 30 | 1.6 | 6.4 | 0.00 | 0.00 | 0.00 | 67 | 1014.4 |
| 20260506040107 | 9 | 52 | 1.6 | 6.4 | 0.00 | 0.00 | 0.00 | 67 | 1014.4 |
| 20260506040002 | 9 | 34 | 0.0 | 4.8 | 0.00 | 0.00 | 0.00 | 67 | 1014.4 |
| 20260506034606 | 9 | 52 | 0.0 | 3.2 | 0.00 | 0.00 | 0.00 | 67 | 1014.5 |
| 20260506033100 | 9 | 43 | 0.0 | 4.8 | 0.00 | 0.00 | 0.00 | 67 | 1014.5 |
| 20260506031559 | 10 | 30 | 1.6 | 4.8 | 0.00 | 0.00 | 0.00 | 66 | 1014.5 |
| 20260506030058 | 10 | 96 | 0.0 | 1.6 | 0.00 | 0.00 | 0.00 | 64 | 1014.5 |
| 20260506024601 | 10 | 46 | 1.6 | 4.8 | 0.00 | 0.00 | 0.00 | 63 | 1014.5 |
| 20260506023100 | 10 | 53 | 1.6 | 8.0 | 0.00 | 0.00 | 0.00 | 63 | 1014.6 |
| 20260506021606 | 10 | 13 | 0.0 | 6.4 | 0.00 | 0.00 | 0.00 | 62 | 1014.7 |
| 20260506020059 | 10 | 57 | 0.0 | 8.0 | 0.00 | 0.00 | 0.00 | 62 | 1014.5 |
| 20260506014600 | 10 | 63 | 1.6 | 6.4 | 0.00 | 0.00 | 0.00 | 62 | 1014.6 |